STARLINK-5897 (55931 NORAD) Tracking and Keplerian Element Data

This shows tracking and keplerian element data for the satellite.

Feedback or suggestion? Click here.




ElementValue
Catalog55931
NameSTARLINK-5897
Epoch Orbit840
Epoch Day127.25001157
Epoch Year2023
RAAN41.1738
Inclination70.0017
Eccentricity0.0003216
Argument of Perigee275.3812
Mean Anonmoly110.5591
Mean Motion15.31834377
Decay Rate-0.00919297
L11 55931U 23037T 23127.25001157 -.00919297 00000+0 -32542-1 0 9999
L22 55931 70.0017 41.1738 0003216 275.3812 110.5591 15.31834377 8400



Live tracking and technical data element details for STARLINK-5897 (NORAD 55931). STARLINK-5897 can be tracked NOW for your location showing map with azimuth and elevation plus other details from your city location.







IsCatalogInMostPopularTable: catalog: 55931, numindb: 8
Update: records affected: 1



GetName: 55931 STARLINK-5897

Hit Count: updated at: Tue, 06 Jun 2023 03:39:56 GMT